Location: Bailleul
(50.3375°N, 2.8513°E)
Time: 08:00:48
(UTC+00:00)

ATLAS 3B R/B - Pass Details

Date: 16 June 2021
Orbit: 1003 x 1191 km, 63.8° (Epoch: 21 July)

Event Time Altitude Azimuth Distance (km) Brightness Sun altitude
Rises 23:06:36 0° 230° (SW) 3,729 5.3 -15.7°
Reaches altitude 10° 23:09:10 10° 233° (SW) 2,792 4.6 -15.7°
Maximum altitude 23:15:43 70° 317° (NW) 1,100 2.9 -15.9°
Drops below altitude 10° 23:22:33 10° 41° (NE) 2,908 5.6 -16.0°
Sets 23:25:17 0° 44° (NE) 3,894 6.3 -16.1°
